Flag for Canada Weather past 2 weeks in Lloydminster, Alberta, Canada

21 °F


Feels Like: 9 °F
Forecast: 12 / 24 °F
Wind: 12 mph from West

Location: Lloydminister

Current Time: Nov 29, 2015 at 1:48:54 AM

Latest Report: Nov 29, 2015 at 1:00 AM

Visibility: 9 mi

Pressure: 30.19 "Hg (27.78 "Hg at 648m altitude)

Humidity: 58%

Dew point: 9 °F

Location of LloydminsterLocation

Historic Weather in Lloydminster — Graph


Lloydminster temperature yesterday

Maximum temperature yesterday: 28 °F (at 1:00 PM)
Minimum temperature yesterday: 16 °F (at 4:00 AM)
Average temperature yesterday: 20 °F

Past Weeks' High & Low Weather Summary

High43 °F (Nov 22, 1:00 PM)100% (Nov 24, 2:00 AM)30.60 "Hg (Nov 24, 2:00 AM)
Low-2 °F (Nov 26, 12:00 AM)46% (Nov 22, 1:00 PM)29.14 "Hg (Nov 17, 8:00 PM)
Average22 °F78%30.01 "Hg
* Reported Midnight between Nov 13 and Nov 14 — Midnight between Nov 28 and Nov 29, Lloydminster, Weather by CustomWeather, © 2015

Note: Actual official high and low records may vary slightly from our data, if they occured in-between our weather recording intervals... More about our weather records


Lloydminster weather history for previous 24 hours

Time TempWeatherWind HumidityBarometerVisibility
12:00 AM
Sun, Nov 29
23 °FClear.9 mph54%30.20 "Hg9 mi
11:00 PM
Sat, Nov 28
19 °FClear.13 mph63%30.21 "Hg9 mi
10:00 PM19 °FPassing clouds.14 mph68%30.22 "Hg15 mi
9:00 PM19 °FPassing clouds.12 mph68%30.23 "Hg15 mi
8:00 PM19 °FPassing clouds.16 mph68%30.23 "Hg15 mi
7:00 PM19 °FClear.14 mph63%30.24 "Hg15 mi
6:00 PM19 °FPassing clouds.14 mph68%30.25 "Hg15 mi
5:00 PM21 °FPassing clouds.13 mph63%30.26 "Hg15 mi
4:00 PM23 °FPassing clouds.13 mph63%30.26 "Hg15 mi
3:00 PM27 °FPassing clouds.12 mph59%30.25 "Hg15 mi
2:00 PM27 °FPassing clouds.9 mph59%30.27 "Hg15 mi
1:00 PM28 °FPassing clouds.5 mph55%30.28 "Hg15 mi
12:00 PM27 °FPassing clouds.7 mph54%30.30 "Hg15 mi
11:00 AM23 °FScattered clouds.9 mph63%30.32 "Hg15 mi
10:00 AM23 °FScattered clouds.12 mph54%30.32 "Hg15 mi
9:00 AM16 °FScattered clouds.12 mph67%30.32 "Hg15 mi
8:00 AM16 °FPassing clouds.12 mph67%30.32 "Hg15 mi
7:00 AM16 °FPassing clouds.12 mph67%30.33 "Hg15 mi
6:00 AM16 °FClear.13 mph67%30.32 "Hg9 mi
5:00 AM16 °FClear.13 mph73%30.33 "Hg9 mi
4:00 AM16 °FClear.12 mph73%30.34 "Hg9 mi
3:00 AM18 °FClear.10 mph73%30.34 "Hg9 mi
2:00 AM18 °FClear.10 mph73%30.33 "Hg9 mi
1:00 AM18 °FPassing clouds.8 mph73%30.33 "Hg9 mi
Weather by CustomWeather, © 2015

See weather overviewHow to use our weather pages